When you browse on this site, cookies collect data to enhance your experience and personalize the content and advertising you see.
Visit our Privacy Policy to learn more. By continuing to use the site, you agree to this use of cookies and data.
EN

Hourly Weather Selidovo

Today, 11 July, Saturday

Time Temperature Precipitation Wind Pressure Humidity
00:00 +18°C° 0 mm 2 mps 750 mmHg 65%
01:00 +18°C° 0 mm 2 mps 750 mmHg 66%
02:00 +17°C° 0 mm 2 mps 750 mmHg 67%
03:00 +17°C° 0 mm 2 mps 750 mmHg 69%
04:00 +18°C° 0 mm 2 mps 750 mmHg 70%
05:00 +18°C° 0 mm 2 mps 750 mmHg 72%
06:00 +20°C° 0 mm 3 mps 750 mmHg 65%
07:00 +21°C° 0 mm 3 mps 750 mmHg 59%
08:00 +24°C° 0 mm 3 mps 750 mmHg 53%
09:00 +25°C° 0 mm 4 mps 750 mmHg 49%
10:00 +26°C° 0 mm 4 mps 750 mmHg 44%
11:00 +27°C° 0 mm 4 mps 750 mmHg 40%
12:00 +28°C° 0 mm 4 mps 750 mmHg 39%
13:00 +29°C° 0 mm 4 mps 749 mmHg 37%
14:00 +29°C° 0 mm 4 mps 749 mmHg 36%
15:00 +29°C° 0 mm 4 mps 749 mmHg 38%
16:00 +29°C° 0 mm 4 mps 748 mmHg 40%
17:00 +28°C° 0 mm 4 mps 748 mmHg 42%
18:00 +26°C° 0 mm 4 mps 748 mmHg 48%
19:00 +25°C° 0 mm 3 mps 748 mmHg 53%
20:00 +22°C° 0 mm 3 mps 748 mmHg 58%
21:00 +21°C° 0 mm 3 mps 747 mmHg 61%
22:00 +20°C° 0 mm 3 mps 747 mmHg 63%
23:00 +20°C° 0 mm 3 mps 747 mmHg 66%

Tomorrow, 12 July, Sunday

Time Temperature Precipitation Wind Pressure Humidity
00:00 +19°C° 0 mm 3 mps 747 mmHg 68%
01:00 +19°C° 0 mm 3 mps 747 mmHg 71%
02:00 +18°C° 0 mm 3 mps 746 mmHg 73%
03:00 +18°C° 0 mm 4 mps 746 mmHg 75%
04:00 +18°C° 0 mm 4 mps 746 mmHg 76%
05:00 +18°C° 0 mm 4 mps 745 mmHg 77%
06:00 +21°C° 0 mm 4 mps 745 mmHg 73%
07:00 +23°C° 0 mm 4 mps 745 mmHg 69%
08:00 +26°C° 0 mm 4 mps 745 mmHg 65%
09:00 +28°C° 0 mm 4 mps 745 mmHg 60%
10:00 +29°C° 0 mm 4 mps 745 mmHg 54%
11:00 +32°C° 0 mm 4 mps 744 mmHg 49%
12:00 +31°C° 0 mm 3 mps 744 mmHg 49%
13:00 +31°C° 0 mm 3 mps 744 mmHg 49%
14:00 +32°C° 0 mm 2 mps 743 mmHg 48%
15:00 +31°C° 0.1 mm 2 mps 743 mmHg 50%
16:00 +31°C° 0.1 mm 3 mps 742 mmHg 52%
17:00 +30°C° 0.1 mm 3 mps 741 mmHg 54%
18:00 +28°C° 1.7 mm 3 mps 742 mmHg 64%
19:00 +26°C° 1.7 mm 3 mps 742 mmHg 74%
20:00 +24°C° 1.7 mm 2 mps 742 mmHg 84%
21:00 +23°C° 1.1 mm 2 mps 741 mmHg 84%
22:00 +23°C° 1.1 mm 2 mps 741 mmHg 85%
23:00 +23°C° 1.1 mm 2 mps 741 mmHg 86%

Day after tomorrow, 13 July, Monday

Time Temperature Precipitation Wind Pressure Humidity
00:00 +21°C° 0.3 mm 2 mps 741 mmHg 88%
01:00 +21°C° 0.3 mm 2 mps 740 mmHg 89%
02:00 +22°C° 0.3 mm 1 mps 740 mmHg 91%
03:00 +22°C° 0.1 mm 1 mps 740 mmHg 90%
04:00 +22°C° 0.1 mm 1 mps 739 mmHg 89%
05:00 +22°C° 0.1 mm 1 mps 739 mmHg 89%
06:00 +24°C° 0.1 mm 1 mps 739 mmHg 83%
07:00 +25°C° 0.1 mm 1 mps 739 mmHg 78%
08:00 +26°C° 0.1 mm 1 mps 739 mmHg 73%
09:00 +27°C° 0.1 mm 1 mps 739 mmHg 67%
10:00 +29°C° 0.1 mm 1 mps 739 mmHg 62%
11:00 +30°C° 0.1 mm 1 mps 739 mmHg 56%
12:00 +31°C° 0.2 mm 1 mps 738 mmHg 53%
13:00 +31°C° 0.2 mm 1 mps 738 mmHg 49%
14:00 +32°C° 0.2 mm 1 mps 738 mmHg 46%
15:00 +31°C° 0.5 mm 2 mps 738 mmHg 50%
16:00 +30°C° 0.5 mm 3 mps 737 mmHg 55%
17:00 +29°C° 0.5 mm 3 mps 737 mmHg 59%
18:00 +27°C° 1.9 mm 3 mps 737 mmHg 68%
19:00 +25°C° 1.9 mm 3 mps 738 mmHg 77%
20:00 +21°C° 1.9 mm 3 mps 738 mmHg 85%
21:00 +21°C° 0.2 mm 3 mps 738 mmHg 87%
22:00 +20°C° 0.2 mm 3 mps 738 mmHg 89%
23:00 +20°C° 0.2 mm 2 mps 738 mmHg 90%

14 July, Tuesday

Time Temperature Precipitation Wind Pressure Humidity
00:00 +20°C° 0 mm 3 mps 738 mmHg 92%
01:00 +19°C° 0 mm 4 mps 738 mmHg 93%
02:00 +19°C° 0 mm 4 mps 738 mmHg 94%
03:00 +19°C° 0 mm 4 mps 738 mmHg 93%
04:00 +19°C° 0 mm 4 mps 738 mmHg 93%
05:00 +19°C° 0 mm 5 mps 739 mmHg 92%
06:00 +17°C° 0 mm 5 mps 739 mmHg 91%
07:00 +17°C° 0 mm 5 mps 739 mmHg 90%
08:00 +17°C° 0 mm 5 mps 739 mmHg 89%
09:00 +19°C° 0 mm 5 mps 740 mmHg 85%
10:00 +19°C° 0 mm 5 mps 740 mmHg 82%
11:00 +20°C° 0 mm 5 mps 740 mmHg 79%
12:00 +21°C° 0 mm 5 mps 741 mmHg 76%
13:00 +21°C° 0 mm 5 mps 741 mmHg 74%
14:00 +21°C° 0 mm 6 mps 741 mmHg 71%
15:00 +21°C° 0.4 mm 6 mps 741 mmHg 72%
16:00 +21°C° 0.4 mm 6 mps 741 mmHg 73%
17:00 +20°C° 0.4 mm 6 mps 741 mmHg 75%
18:00 +19°C° 0.1 mm 5 mps 741 mmHg 79%
19:00 +19°C° 0.1 mm 4 mps 742 mmHg 83%
20:00 +18°C° 0.1 mm 4 mps 742 mmHg 87%
21:00 +17°C° 0 mm 4 mps 742 mmHg 89%
22:00 +17°C° 0 mm 4 mps 742 mmHg 90%
23:00 +15°C° 0 mm 4 mps 742 mmHg 92%

15 July, Wednesday

Time Temperature Precipitation Wind Pressure Humidity
00:00 +15°C° 0 mm 5 mps 742 mmHg 91%
01:00 +15°C° 0 mm 5 mps 743 mmHg 91%
02:00 +14°C° 0 mm 5 mps 743 mmHg 91%
03:00 +14°C° 0 mm 5 mps 743 mmHg 90%
04:00 +14°C° 0 mm 4 mps 743 mmHg 90%
05:00 +14°C° 0 mm 4 mps 744 mmHg 89%
06:00 +15°C° 0 mm 4 mps 744 mmHg 83%
07:00 +18°C° 0 mm 4 mps 744 mmHg 76%
08:00 +20°C° 0 mm 4 mps 745 mmHg 70%
09:00 +21°C° 0 mm 5 mps 745 mmHg 63%
10:00 +22°C° 0 mm 5 mps 745 mmHg 57%
11:00 +25°C° 0 mm 5 mps 745 mmHg 50%
12:00 +25°C° 0 mm 5 mps 745 mmHg 48%
13:00 +26°C° 0 mm 5 mps 745 mmHg 46%
14:00 +26°C° 0 mm 5 mps 745 mmHg 43%
15:00 +26°C° 0 mm 5 mps 745 mmHg 44%
16:00 +26°C° 0 mm 4 mps 745 mmHg 45%
17:00 +25°C° 0 mm 4 mps 745 mmHg 47%
18:00 +24°C° 0 mm 3 mps 745 mmHg 52%
19:00 +21°C° 0 mm 2 mps 745 mmHg 58%
20:00 +21°C° 0 mm 1 mps 746 mmHg 63%
21:00 +20°C° 0 mm 1 mps 746 mmHg 66%
22:00 +19°C° 0 mm 1 mps 746 mmHg 68%
23:00 +16°C° 0 mm 0 mps 746 mmHg 71%

16 July, Thursday

Time Temperature Precipitation Wind Pressure Humidity
00:00 +16°C° 0 mm 0 mps 746 mmHg 72%
01:00 +16°C° 0 mm 0 mps 746 mmHg 73%
02:00 +15°C° 0 mm 0 mps 746 mmHg 73%
03:00 +16°C° 0 mm 0 mps 746 mmHg 73%
04:00 +16°C° 0 mm 0 mps 746 mmHg 73%
05:00 +18°C° 0 mm 1 mps 746 mmHg 73%
06:00 +18°C° 0 mm 0 mps 746 mmHg 66%
07:00 +20°C° 0 mm 0 mps 746 mmHg 60%
08:00 +22°C° 0 mm 0 mps 746 mmHg 54%
09:00 +25°C° 0 mm 1 mps 746 mmHg 50%
10:00 +25°C° 0 mm 1 mps 746 mmHg 46%
11:00 +26°C° 0 mm 1 mps 746 mmHg 41%
12:00 +26°C° 0 mm 2 mps 746 mmHg 41%
13:00 +26°C° 0 mm 2 mps 745 mmHg 41%
14:00 +26°C° 0 mm 2 mps 745 mmHg 41%
15:00 +26°C° 0 mm 1 mps 745 mmHg 42%
16:00 +26°C° 0 mm 1 mps 745 mmHg 42%
17:00 +26°C° 0 mm 1 mps 745 mmHg 42%
18:00 +25°C° 0 mm 1 mps 745 mmHg 46%
19:00 +23°C° 0 mm 1 mps 745 mmHg 50%
20:00 +22°C° 0 mm 1 mps 745 mmHg 53%
21:00 +21°C° 0 mm 1 mps 744 mmHg 55%
22:00 +21°C° 0 mm 1 mps 744 mmHg 56%
23:00 +20°C° 0 mm 1 mps 744 mmHg 58%
Show more